This demonstration page uses our WeatherBlox Daily Observations layout. Learn more.

Left ArrowRight Arrow

Hourly Observations for December 7, 2015

Temp ( °F °C ) Dew Point ( °F °C ) Humidity (%) Winds ( mph kmh ) Pressure ( in mb ) Visibility ( mi km ) Precip ( " mm )
12:51 am 00:51 Clear 50 10 20 -6.7 30 30 SE 12 19 30.26 1025 10 16 N/A
1:51 am 01:51 Clear 51 10.6 20 -6.7 29 29 ESE 16 26 30.24 1024 10 16 N/A
2:51 am 02:51 Clear 49 9.4 20 -6.7 32 32 ESE 10 17 30.23 1024 10 16 N/A
3:51 am 03:51 Clear 49 9.4 20 -6.7 32 32 ESE 10 17 30.22 1023 10 16 N/A
4:51 am 04:51 Clear 46 7.8 20 -6.7 35 35 ESE 10 17 30.23 1024 10 16 N/A
5:51 am 05:51 Clear 47 8.3 20 -6.7 34 34 SE 12 19 30.25 1024 10 16 N/A
6:51 am 06:51 Clear 47 8.3 20 -6.7 34 34 ESE 12 19 30.25 1025 10 16 N/A
7:51 am 07:51 Sunny 47 8.3 20 -6.7 34 34 ESE 13 20 30.26 1025 10 16 N/A
8:51 am 08:51 Sunny 49 9.4 20 -6.7 32 32 ESE 12 19 30.28 1025 10 16 N/A
9:51 am 09:51 Sunny 50 10 20 -6.7 30 30 ESE 10 17 30.28 1025 10 16 N/A
10:51 am 10:51 Sunny 55 12.8 21 -6.1 26 26 SE 12 19 30.25 1025 10 16 N/A
11:51 am 11:51 Sunny 58 14.4 20 -6.7 23 23 SSE 9 15 30.20 1023 10 16 N/A
12:51 pm 12:51 Sunny 61 16.1 21 -6.1 21 21 SE 7 11 30.17 1022 10 16 N/A
1:51 pm 13:51 Sunny 64 17.8 21 -6.1 19 19 SE 6 9 30.13 1020 10 16 N/A
2:51 pm 14:51 Sunny 65 18.3 22 -5.6 19 19 SSE 7 11 30.11 1020 10 16 N/A
3:51 pm 15:51 Sunny 66 18.9 23 -5 19 19 SSE 8 13 30.09 1019 10 16 N/A
4:51 pm 16:51 Sunny 63 17.2 23 -5 22 22 S 5 7 30.09 1019 10 16 N/A
5:51 pm 17:51 Clear 54 12.2 22 -5.6 29 29 ESE 3 6 30.12 1020 10 16 N/A
6:51 pm 18:51 Clear 48 8.9 21 -6.1 34 34 ENE 6 9 30.13 1020 10 16 N/A
7:51 pm 19:51 Clear 48 8.9 22 -5.6 36 36 E 9 15 30.11 1020 10 16 N/A
8:51 pm 20:51 Clear 45 7.2 21 -6.1 39 39 N N/A 30.14 1021 10 16 N/A
9:51 pm 21:51 Clear 40 4.4 21 -6.1 47 47 NNW 5 7 30.15 1021 10 16 N/A
10:51 pm 22:51 Clear 38 3.3 20 -6.7 48 48 SE 5 7 30.15 1021 10 16 N/A
11:51 pm 23:51 Clear 38 3.3 22 -5.6 52 52 SE 7 11 30.13 1020 10 16 N/A

Powered by AerisWeather